Location: Cormont
(50.5693°N, 1.7416°E)
Time: 07:18:19
(UTC+00:00)

SKYMED 2 - Pass Details

Date: 21 October 2019
Orbit: 622 x 623 km, 97.9° (Epoch: 17 November)

Event Time Altitude Azimuth Distance (km) Brightness Sun altitude
Rises 17:37:16 0° 19° (NNE) 2,916 6.8 -8.2°
Reaches altitude 10° 17:39:34 10° 26° (NNE) 2,004 5.9 -8.6°
Maximum altitude 17:43:43 43° 98° (E) 884 3.9 -9.3°
Drops below altitude 10° 17:47:50 10° 170° (S) 1,988 6.1 -9.9°
Sets 17:50:06 0° 178° (S) 2,889 7.0 -10.3°
